Погода в Валтице

Чехия     48°44′34″N   16°45′26″E
темп.,
°C
ветер,
м/с
пор.,
м/с
влажн.,
%
обл.,
%
осадки,
мм/ч
давл.,
гПа
погр.,
м
28 февраля, вс
вс2801:00+1ссз23892 0.0 103835
04:00+1сз248457 0.0 1037104
07:000сз238231 0.0 103744
10:00+5ссз346467 0.0 1037440
13:00+7ссз335379 0.0 1035896
16:00+8сз24510 0.0 1034791
19:00+5сз12620 0.0 103422
22:00+3сз22720 0.0 103428
1 марта, пн
пн101:00+2сз23800 0.0 103529
04:00+1с23840 0.0 103441
07:00+1ссз33900 0.0 103570
10:00+6с57720 0.0 1035496
13:00+9ссв46630 0.0 1035731
16:00+9св34650 0.0 1034713
19:00+5ссв33830 0.0 103563
22:00+3св12870 0.0 103622
2 марта, вт
вт201:00+2св12890 0.0 103622
04:00+1всв11910 0.0 103522
07:00+1всв11910 0.0 103522
10:00+6в23720 0.0 1035331
13:00+11юв33510 0.0 1034702
16:00+11юв23490 0.0 1032680
19:00+7юв12670 0.0 103322
22:00+5вюв11720 0.0 103422
3 марта, ср
ср301:00+4всв11770 0.0 103322
04:00+3св118241 0.0 103322
07:00+2с008349 0.0 103222
10:00+7ююз00650 0.0 1032278
13:00+11юз12540 0.0 1029644
16:00+11зюз12510 0.0 1027767
19:00+8ююв22670 0.0 102722
22:00+6ю22760 0.0 102723
4 марта, чт
чт401:00+5ю128123 0.0 102522
04:00+4ю11852 0.0 102322
07:00+3ююв128619 0.0 102222
10:00+9ю236713 0.0 1019340
13:00+13ююз334940 0.0 1017653
16:00+12ю3554100 0.0 1014460
19:00+9ю3567100 0.0 101493
22:00+8сз3572100 0.0 1013121